DateTimeUTC,F1_A11,F1_S11,BsB_S11,BsG_S11,BsR_S11,BbsB_S11,BbsG_S11,BbsR_S11,BaB_A11,BaG_A11,BaR_A11,Tu_S11,T_S11,Uu_S11,U_S11,P_S11,T1_A11
2021-09-03T18:00:00Z,00000200,20000000,,,,,,,-000.15,-000.10,-000.02,20.3,26.9,06.4,04.3,0668.2,31.2
2021-09-03T18:01:00Z,00000200,20000000,,,,,,,-000.14,-000.15,-000.15,20.3,26.9,06.4,04.3,0668.2,31.2
2021-09-03T18:02:00Z,00000200,20000000,,,,,,,-000.12,0000.08,0000.32,20.3,26.9,06.4,04.3,0668.2,31.2
2021-09-03T18:03:00Z,00000200,60000000,,,,,,,0000.21,-000.19,0000.17,20.3,26.9,06.4,04.3,0668.2,31.2
2021-09-03T18:04:00Z,00000200,40000000,-000.15,0000.33,0000.13,0000.33,0000.11,0000.38,0000.09,0000.42,-000.08,20.4,26.7,06.5,04.5,0669.1,31.2
2021-09-03T18:05:00Z,00000200,00000000,0000.94,-000.04,0000.34,-000.24,0000.14,0000.17,0000.09,-000.26,0000.10,20.4,26.7,06.5,04.5,0669.1,31.2
2021-09-03T18:06:00Z,00000200,00000000,0001.04,0000.01,-000.16,-000.10,0000.10,-000.34,-000.19,-000.23,-000.36,20.4,26.7,06.5,04.5,0669.1,31.2
2021-09-03T18:07:00Z,00000200,00000000,0000.29,0000.04,0000.19,0000.21,-000.08,0000.08,0000.38,-000.02,0000.03,20.4,26.7,06.5,04.5,0669.1,31.2
2021-09-03T18:08:00Z,00000200,00000000,0000.76,0000.06,0000.23,-000.42,0000.19,0000.16,-000.37,0000.20,0000.05,20.4,26.7,06.5,04.5,0669.1,31.2
2021-09-03T18:09:00Z,00000200,00000000,0000.31,0000.21,0000.19,0000.12,0000.54,0000.18,0000.44,0000.30,0000.14,20.4,26.6,06.5,04.5,0669.1,31.2
2021-09-03T18:10:00Z,00000200,00000000,0000.38,0000.01,-000.08,-000.14,0000.33,-000.23,-000.03,-000.04,-000.09,20.4,26.6,06.6,04.5,0669.1,31.2
2021-09-03T18:11:00Z,00000200,00000000,0000.29,0000.06,0000.18,0000.12,0000.38,-000.06,-000.07,0000.01,0000.16,20.4,26.6,06.7,04.6,0669.1,31.2
2021-09-03T18:12:00Z,00000200,00000000,0000.37,0000.28,0000.06,0000.62,0000.02,0000.31,0000.09,-000.27,0000.03,20.4,26.6,06.7,04.6,0669.1,31.2
2021-09-03T18:13:00Z,00000200,00000000,0000.56,0000.29,0000.56,-000.37,-000.33,0000.34,0000.05,0000.44,-000.29,20.4,26.6,06.7,04.6,0669.1,31.2
2021-09-03T18:14:00Z,00000200,00000000,0000.67,0000.31,0000.22,-000.10,0000.07,0000.21,-000.12,-000.13,0000.47,20.4,26.6,06.7,04.6,0669.1,31.2
2021-09-03T18:15:00Z,00000200,00000000,0001.09,0000.10,0000.04,-000.15,-000.09,-000.03,0000.22,0000.04,-000.30,20.4,26.6,06.6,04.5,0669.1,31.2
2021-09-03T18:16:00Z,00000200,00000000,0000.13,-000.05,0000.36,0000.09,0000.26,0000.23,-000.18,-000.06,0000.31,20.4,26.6,06.7,04.6,0669.1,31.2
2021-09-03T18:17:00Z,00000200,00000000,-000.16,-000.08,0000.35,0000.58,-000.12,0000.21,0000.43,0000.21,0000.02,20.4,26.6,06.7,04.6,0669.1,31.2
2021-09-03T18:18:00Z,00000200,00000000,0000.19,0000.50,0000.10,-000.20,0000.01,-000.36,-000.21,0000.17,-000.30,20.4,26.6,06.7,04.6,0669.1,31.2
2021-09-03T18:19:00Z,00000200,00000000,-000.07,0000.32,0000.34,-000.41,0000.30,0000.08,0000.05,0000.07,0000.36,20.4,26.6,06.7,04.6,0669.1,31.2
2021-09-03T18:20:00Z,00000200,00000000,0000.11,0000.09,0000.43,0000.43,-000.00,0000.47,0000.02,-000.27,0000.03,20.4,26.6,06.8,04.7,0669.0,31.2
2021-09-03T18:21:00Z,00000200,00000000,0000.51,0000.17,0000.10,-000.04,-000.19,0000.29,0000.34,0000.33,-000.13,20.4,26.6,06.6,04.6,0669.0,31.2
2021-09-03T18:22:00Z,00000200,00000000,0000.39,0000.13,0000.12,-000.61,-000.17,0000.20,-000.11,-000.18,0000.22,20.4,26.6,06.7,04.6,0669.0,31.2
2021-09-03T18:23:00Z,00000200,00000000,0000.55,0000.32,0000.08,-000.73,-000.09,-000.16,-000.03,-000.23,-000.08,20.4,26.6,06.8,04.7,0669.0,31.2
2021-09-03T18:24:00Z,00000200,00000000,0000.27,-000.11,-000.01,0000.00,0000.21,0000.14,-000.03,-000.06,-000.22,20.4,26.6,06.7,04.6,0669.0,31.2
2021-09-03T18:25:00Z,00000200,00010000,0000.52,-000.11,0000.41,0000.24,-000.07,-000.06,0000.23,0000.44,0000.35,20.4,26.6,06.7,04.6,0669.0,31.2
2021-09-03T18:26:00Z,00000200,00000000,0000.88,0000.07,0000.14,0000.31,-000.07,0000.04,-000.26,-000.08,0000.08,20.4,26.6,06.7,04.6,0669.0,31.2
2021-09-03T18:27:00Z,00000200,00000000,-000.08,0000.23,0000.42,0000.26,0000.27,0000.37,0000.24,-000.13,0000.09,20.4,26.6,06.8,04.6,0669.0,31.2
2021-09-03T18:28:00Z,00000200,00000000,-000.16,-000.10,0000.21,0000.07,0000.14,-000.18,-000.06,0000.06,-000.23,20.4,26.5,06.8,04.7,0669.0,31.2
2021-09-03T18:29:00Z,00000200,00000000,0000.07,0000.14,0000.25,0000.02,0000.14,-000.07,0000.04,0000.28,0000.03,20.4,26.5,06.8,04.7,0669.0,31.2
2021-09-03T18:30:00Z,00000200,00000000,0000.18,0000.17,0000.48,-000.03,0000.11,0000.26,-000.14,-000.31,-000.04,20.4,26.5,06.8,04.7,0669.0,31.2
2021-09-03T18:31:00Z,00000200,00000000,-000.36,0000.02,0000.12,-000.25,0000.15,-000.19,0000.03,0000.20,0000.45,20.3,26.5,06.9,04.7,0669.0,31.2
2021-09-03T18:32:00Z,00000200,00000000,-000.06,-000.27,0000.12,-000.56,-000.06,0000.03,0000.21,-000.17,-000.37,20.3,26.5,06.9,04.7,0669.0,31.2
2021-09-03T18:33:00Z,00000200,00000000,0000.08,0000.25,0000.37,0000.58,0000.15,0000.10,-000.04,0000.23,-000.02,20.3,26.5,06.8,04.7,0669.0,31.2
2021-09-03T18:34:00Z,00000200,00000000,0000.25,0000.45,0000.20,-000.28,-000.01,-000.00,0000.19,0000.21,0000.04,20.3,26.5,06.9,04.7,0669.0,31.2
2021-09-03T18:35:00Z,00000200,00000000,-000.22,0000.15,-000.06,-000.16,0000.16,0000.08,-000.35,-000.25,0000.33,20.3,26.5,06.8,04.7,0669.0,31.2
2021-09-03T18:36:00Z,00000200,00000000,-000.17,-000.33,0000.15,0000.11,0000.08,0000.41,0000.24,0000.14,-000.02,20.3,26.5,06.9,04.7,0669.0,31.2
2021-09-03T18:37:00Z,00000200,00000000,-000.03,0000.13,0000.06,-000.43,0000.11,-000.26,0000.30,0000.11,-000.25,20.3,26.5,06.8,04.7,0669.0,31.2
2021-09-03T18:38:00Z,00000200,00000000,0001.02,-000.14,-000.06,-000.49,0000.16,-000.05,-000.16,-000.24,0000.14,20.3,26.5,06.9,04.8,0669.0,31.2
2021-09-03T18:39:00Z,00000200,00000000,0000.67,0000.25,0000.58,-000.17,0000.05,-000.03,0000.04,0000.16,-000.02,20.3,26.5,06.9,04.8,0669.0,31.2
2021-09-03T18:40:00Z,00000200,00000000,0000.44,0000.12,0000.23,-000.30,0000.11,0000.27,0000.05,-000.08,0000.22,20.3,26.5,06.9,04.8,0669.0,31.2
2021-09-03T18:41:00Z,00000200,00000000,0000.36,0000.15,0000.35,-000.23,-000.04,0000.29,0000.20,0000.14,-000.07,20.3,26.5,06.9,04.8,0669.0,31.2
2021-09-03T18:42:00Z,00000200,00000000,0000.81,0000.03,0000.14,-000.16,0000.11,0000.21,-000.24,0000.19,-000.08,20.3,26.4,06.9,04.8,0669.0,31.2
2021-09-03T18:43:00Z,00000200,00000000,0000.44,0000.35,0000.09,0000.13,0000.16,0000.21,0000.26,-000.36,0000.22,20.3,26.5,07.0,04.9,0669.0,31.2
2021-09-03T18:44:00Z,00000200,00000000,0000.52,0000.18,0000.47,0000.06,0000.18,-000.01,-000.42,0000.32,-000.05,20.3,26.5,07.1,04.9,0668.9,31.2
2021-09-03T18:45:00Z,00000200,00000000,0000.60,0000.35,0000.14,-000.16,0000.22,-000.03,0000.40,-000.20,-000.01,20.3,26.5,07.1,04.9,0668.9,31.2
2021-09-03T18:46:00Z,00000200,00000000,0000.20,0000.25,0000.30,-000.14,0000.16,0000.22,0000.20,0000.63,-000.11,20.3,26.5,07.1,04.9,0668.9,31.2
2021-09-03T18:47:00Z,00000200,00000000,0000.51,0000.32,0000.29,-000.31,0000.25,0000.27,-000.06,-000.29,0000.30,20.3,26.4,07.3,05.0,0668.9,31.2
2021-09-03T18:48:00Z,00000200,00000000,-000.03,-000.07,-000.20,-000.13,0000.06,-000.09,0000.05,-000.17,-000.20,20.3,26.4,07.2,05.0,0668.9,31.2
2021-09-03T18:49:00Z,00000200,00000000,-000.10,0000.17,0000.22,0000.21,-000.10,0000.27,0000.02,0000.22,0000.04,20.3,26.4,07.3,05.0,0668.9,31.2
2021-09-03T18:50:00Z,00000200,00000000,-000.02,0000.22,0000.24,0000.32,-000.04,0000.26,0000.33,-000.19,-000.16,20.3,26.4,07.3,05.0,0668.9,31.2
2021-09-03T18:51:00Z,00000200,00000000,0000.17,-000.25,0000.28,-000.06,0000.33,-000.09,-000.27,-000.08,0000.09,20.3,26.4,07.3,05.0,0668.9,31.2
2021-09-03T18:52:00Z,00000200,00000000,0000.18,0000.38,-000.15,0000.58,0000.17,0000.10,-000.20,0000.30,-000.04,20.3,26.4,07.4,05.1,0668.8,31.2
2021-09-03T18:53:00Z,00000200,00000000,-000.09,0000.14,0000.18,0000.25,0000.31,0000.17,0000.25,0000.10,0000.43,20.3,26.4,07.3,05.0,0668.9,31.2
2021-09-03T18:54:00Z,00000200,00000000,-000.20,-000.18,-000.06,0000.07,0000.14,0000.22,-000.04,0000.15,-000.05,20.3,26.4,07.4,05.1,0668.8,31.2
2021-09-03T18:55:00Z,00000200,00000000,0000.43,0000.41,-000.11,-000.05,0000.15,-000.07,0000.10,0000.05,0000.03,20.3,26.4,07.4,05.1,0668.8,31.2
2021-09-03T18:56:00Z,00000200,00000000,0000.48,0000.05,0000.29,0000.07,0000.05,-000.06,0000.02,-000.23,-000.23,20.3,26.4,07.3,05.1,0668.8,31.2
2021-09-03T18:57:00Z,00000200,40000000,,,,,,,-000.18,-000.10,-000.15,20.3,26.4,07.5,05.2,0668.7,31.2
2021-09-03T18:58:00Z,00000200,60000000,,,,,,,-000.07,-000.20,0000.01,20.0,26.5,07.1,04.8,0667.9,31.2
2021-09-03T18:59:00Z,00000200,20000000,,,,,,,-000.13,0000.08,0000.12,20.0,26.6,07.2,04.8,0667.9,31.2
